Meacham, OR

2:46 PM PDT on July 20, 2017 (GMT -0700)
Meacham

Weather History for KMEH - July, 2013

Change the Weather History Date:

Friday, July 19, 2013

  Actual Average Record
Temperature  
Mean Temperature 64 °F -  
Max Temperature 87 °F 78 °F 91 °F (2003)
Min Temperature 42 °F 39 °F 30 °F (2008)
Degree Days  
Heating Degree Days 1    
Growing Degree Days 14 (Base 50)    
Moisture  
Dew Point 41 °F    
Average Humidity 50    
Maximum Humidity 93    
Minimum Humidity 15    
Precipitation  
Precipitation 0.00 in - - ()
Sea Level Pressure  
Sea Level Pressure 30.06 in    
Wind  
Wind Speed 1 mph (North)    
Max Wind Speed 5 mph    
Max Gust Speed -    
Visibility 10 miles    
Events      
Averages and records for this station are not official NWS values.
T = Trace of Precipitation, MM = Missing Value Source: NWS Daily Summary

Daily Weather History Graph

Daily Weather History Graph

Search for Another Location

Airport or City:

Trip Planner

Search our weather history database for the weather conditions in past years. The results will help you decide how hot, cold, wet, or windy it might be!

Date:

Astronomy

Jul. 19, 2013 Rise Set
Actual Time 5:23 AM PDT 8:35 PM PDT
Civil Twilight 4:47 AM PDT 9:11 PM PDT
Nautical Twilight 4:01 AM PDT 9:57 PM PDT
Astronomical Twilight 3:03 AM PDT 10:54 PM PDT
Moon 5:42 PM PDT (7/19) 2:09 AM PDT (7/19)
Length of Visible Light 16h 23m
Length of Day
15h 12m
Waxing Gibbous, 87% of the Moon is Illuminated
Jul 19
Waxing Gibbous
Jul 22
Full
Jul 29
Last Quarter
Aug 6
New
Aug 14
First Quarter

Hourly Weather History & Observations

Time (PDT) Temp. Dew Point Humidity Pressure Visibility Wind Dir Wind Speed Gust Speed Precip Events Conditions
12:56 AM 48.9 °F 44.1 °F 83% 30.11 in 10.0 mi Calm Calm - N/A   Clear
1:56 AM 46.9 °F 43.0 °F 86% 30.10 in 10.0 mi Calm Calm - N/A   Clear
2:56 AM 46.0 °F 41.0 °F 83% 30.09 in 10.0 mi Calm Calm - N/A   Clear
3:56 AM 43.0 °F 41.0 °F 93% 30.10 in 10.0 mi Calm Calm - N/A   Clear
4:56 AM 42.1 °F 39.0 °F 89% 30.11 in 10.0 mi Calm Calm - N/A   Clear
5:56 AM 42.1 °F 39.0 °F 89% 30.11 in 10.0 mi Calm Calm - N/A   Clear
6:56 AM 48.9 °F 42.1 °F 77% 30.11 in 10.0 mi Calm Calm - N/A   Clear
7:56 AM 60.1 °F 46.0 °F 60% 30.09 in 10.0 mi Calm Calm - N/A   Clear
8:56 AM 72.0 °F 48.9 °F 44% 30.09 in 10.0 mi Calm Calm - N/A   Clear
9:56 AM 78.1 °F 43.0 °F 29% 30.08 in 10.0 mi Calm Calm - N/A   Clear
10:56 AM 81.0 °F 42.1 °F 25% 30.08 in 10.0 mi Variable 3.5 mph - N/A   Clear
11:56 AM 82.0 °F 41.0 °F 23% 30.08 in 10.0 mi Variable 3.5 mph - N/A   Clear
12:56 PM 82.9 °F 39.9 °F 22% 30.08 in 10.0 mi Variable 4.6 mph - N/A   Clear
1:56 PM 84.9 °F 36.0 °F 17% 30.06 in 10.0 mi Calm Calm - N/A   Clear
2:56 PM 86.0 °F 34.0 °F 16% 30.05 in 10.0 mi Variable 3.5 mph - N/A   Clear
3:56 PM 86.0 °F 33.1 °F 15% 30.04 in 10.0 mi Calm Calm - N/A   Clear
4:56 PM 86.0 °F 33.1 °F 15% 30.03 in 10.0 mi Calm Calm - N/A   Clear
5:56 PM 84.9 °F 35.1 °F 17% 30.02 in 10.0 mi Variable 4.6 mph - N/A   Clear
6:56 PM 82.9 °F 36.0 °F 19% 30.01 in 10.0 mi Calm Calm - N/A   Clear
7:56 PM 73.9 °F 39.0 °F 28% 30.01 in 10.0 mi Calm Calm - N/A   Clear
8:56 PM 64.9 °F 45.0 °F 48% 30.01 in 10.0 mi Calm Calm - N/A   Clear
9:56 PM 59.0 °F 46.9 °F 64% 30.02 in 10.0 mi Calm Calm - N/A   Clear
10:56 PM 54.0 °F 45.0 °F 72% 30.02 in 10.0 mi Calm Calm - N/A   Clear
11:56 PM 51.1 °F 44.1 °F 77% 30.02 in 10.0 mi Calm Calm - N/A   Clear